Time,TemperatureF,DewpointF,PressureIn,WindDirection,WindDirectionDegrees,WindSpeedMPH,WindSpeedGustMPH,Humidity,HourlyPrecipIn,Conditions,Clouds,dailyrainin,SoftwareType,DateUTC
2013-09-27 00:08:00,52.2,51.0,30.12,South,190,0.0,0.0,95,0.00,,,0.00,weatherlink.com 1.10,2013-09-27 04:08:00,
2013-09-27 00:23:00,52.1,51.0,30.12,South,190,0.0,0.0,95,0.00,,,0.00,weatherlink.com 1.10,2013-09-27 04:23:00,
2013-09-27 00:38:00,52.2,51.0,30.13,South,170,0.0,0.0,95,0.00,,,0.00,weatherlink.com 1.10,2013-09-27 04:38:00,
2013-09-27 00:53:00,52.1,51.0,30.13,South,170,0.0,0.0,95,0.00,,,0.00,weatherlink.com 1.10,2013-09-27 04:53:00,
2013-09-27 01:08:00,52.1,51.0,30.14,South,170,0.0,0.0,95,0.00,,,0.00,weatherlink.com 1.10,2013-09-27 05:08:00,
2013-09-27 01:23:00,52.3,51.0,30.14,ESE,122,0.0,0.0,94,0.00,,,0.00,weatherlink.com 1.10,2013-09-27 05:23:00,
2013-09-27 01:38:00,52.4,51.0,30.14,WSW,245,0.0,0.0,93,0.00,,,0.00,weatherlink.com 1.10,2013-09-27 05:38:00,
2013-09-27 01:53:00,52.5,50.0,30.14,SW,228,0.0,0.0,91,0.00,,,0.00,weatherlink.com 1.10,2013-09-27 05:53:00,
2013-09-27 02:08:00,52.4,50.0,30.14,WSW,250,0.0,0.0,90,0.00,,,0.00,weatherlink.com 1.10,2013-09-27 06:08:00,
2013-09-27 02:23:00,52.4,50.0,30.14,WSW,250,0.0,0.0,92,0.00,,,0.00,weatherlink.com 1.10,2013-09-27 06:23:00,
2013-09-27 02:38:00,52.1,50.0,30.14,WSW,250,0.0,0.0,92,0.00,,,0.00,weatherlink.com 1.10,2013-09-27 06:38:00,
2013-09-27 02:53:00,51.8,50.0,30.14,WSW,250,0.0,0.0,93,0.00,,,0.00,weatherlink.com 1.10,2013-09-27 06:53:00,
2013-09-27 03:08:00,51.9,50.0,30.13,WSW,250,0.0,0.0,93,0.00,,,0.00,weatherlink.com 1.10,2013-09-27 07:08:00,
2013-09-27 03:23:00,51.9,50.0,30.13,WSW,250,0.0,0.0,93,0.00,,,0.00,weatherlink.com 1.10,2013-09-27 07:23:00,
2013-09-27 03:38:00,51.9,50.0,30.13,WSW,250,0.0,0.0,93,0.00,,,0.00,weatherlink.com 1.10,2013-09-27 07:38:00,
2013-09-27 03:53:00,52.0,50.0,30.14,WSW,250,0.0,0.0,92,0.00,,,0.00,weatherlink.com 1.10,2013-09-27 07:53:00,
2013-09-27 04:08:00,52.0,50.0,30.14,WSW,250,0.0,0.0,92,0.00,,,0.00,weatherlink.com 1.10,2013-09-27 08:08:00,
2013-09-27 04:23:00,52.1,50.0,30.14,West,267,0.0,4.0,92,0.00,,,0.00,weatherlink.com 1.10,2013-09-27 08:23:00,
2013-09-27 04:38:00,52.3,50.0,30.14,WSW,256,0.0,1.0,91,0.00,,,0.00,weatherlink.com 1.10,2013-09-27 08:38:00,
2013-09-27 04:53:00,52.4,50.0,30.15,West,271,1.0,2.0,91,0.00,,,0.00,weatherlink.com 1.10,2013-09-27 08:53:00,
2013-09-27 05:08:00,52.8,50.0,30.15,West,276,1.0,3.0,90,0.00,,,0.00,weatherlink.com 1.10,2013-09-27 09:08:00,
2013-09-27 05:23:00,52.6,50.0,30.16,WNW,290,0.0,3.0,90,0.00,,,0.00,weatherlink.com 1.10,2013-09-27 09:23:00,
2013-09-27 05:38:00,52.7,50.0,30.16,West,260,1.0,3.0,90,0.00,,,0.00,weatherlink.com 1.10,2013-09-27 09:38:00,
2013-09-27 05:53:00,52.6,50.0,30.17,WSW,256,0.0,2.0,89,0.00,,,0.00,weatherlink.com 1.10,2013-09-27 09:53:00,
2013-09-27 06:08:00,52.6,50.0,30.17,WNW,300,0.0,2.0,89,0.00,,,0.00,weatherlink.com 1.10,2013-09-27 10:08:00,
2013-09-27 06:23:00,52.6,50.0,30.18,WSW,256,0.0,1.0,90,0.00,,,0.00,weatherlink.com 1.10,2013-09-27 10:23:00,
2013-09-27 06:38:00,52.6,50.0,30.18,WSW,245,0.0,0.0,89,0.00,,,0.00,weatherlink.com 1.10,2013-09-27 10:38:00,
2013-09-27 06:53:00,52.7,50.0,30.18,West,273,0.0,0.0,89,0.00,,,0.00,weatherlink.com 1.10,2013-09-27 10:53:00,
2013-09-27 07:08:00,52.8,50.0,30.19,West,276,0.0,2.0,89,0.00,,,0.00,weatherlink.com 1.10,2013-09-27 11:08:00,
2013-09-27 07:23:00,52.9,50.0,30.19,WSW,256,0.0,1.0,89,0.00,,,0.00,weatherlink.com 1.10,2013-09-27 11:23:00,
2013-09-27 07:38:00,52.9,50.0,30.20,WSW,257,0.0,0.0,89,0.00,,,0.00,weatherlink.com 1.10,2013-09-27 11:38:00,
2013-09-27 07:53:00,53.1,50.0,30.20,WSW,253,0.0,2.0,88,0.00,,,0.00,weatherlink.com 1.10,2013-09-27 11:53:00,
2013-09-27 08:08:00,53.3,50.0,30.20,West,274,0.0,3.0,88,0.00,,,0.00,weatherlink.com 1.10,2013-09-27 12:08:00,
2013-09-27 08:23:00,53.8,50.0,30.21,West,271,1.0,3.0,87,0.00,,,0.00,weatherlink.com 1.10,2013-09-27 12:23:00,
2013-09-27 08:39:00,54.1,50.0,30.21,West,274,0.0,2.0,86,0.00,,,0.00,weatherlink.com 1.10,2013-09-27 12:39:00,
2013-09-27 08:54:00,54.4,50.0,30.22,West,277,0.0,3.0,86,0.00,,,0.00,weatherlink.com 1.10,2013-09-27 12:54:00,
2013-09-27 09:09:00,54.8,51.0,30.22,West,262,1.0,1.0,87,0.00,,,0.00,weatherlink.com 1.10,2013-09-27 13:09:00,
2013-09-27 09:24:00,55.2,51.0,30.22,West,281,1.0,4.0,84,0.00,,,0.00,weatherlink.com 1.10,2013-09-27 13:24:00,
2013-09-27 09:39:00,55.5,51.0,30.22,NE,41,0.0,2.0,84,0.00,,,0.00,weatherlink.com 1.10,2013-09-27 13:39:00,
2013-09-27 09:54:00,55.9,51.0,30.22,SW,235,0.0,3.0,82,0.00,,,0.00,weatherlink.com 1.10,2013-09-27 13:54:00,
2013-09-27 10:09:00,56.3,51.0,30.22,NNE,26,0.0,2.0,81,0.00,,,0.00,weatherlink.com 1.10,2013-09-27 14:09:00,
2013-09-27 10:24:00,56.8,51.0,30.22,NE,34,0.0,2.0,81,0.00,,,0.00,weatherlink.com 1.10,2013-09-27 14:24:00,
2013-09-27 10:39:00,57.7,51.0,30.23,WNW,286,1.0,7.0,79,0.00,,,0.00,weatherlink.com 1.10,2013-09-27 14:39:00,
2013-09-27 10:54:00,58.5,51.0,30.23,WNW,290,2.0,5.0,75,0.00,,,0.00,weatherlink.com 1.10,2013-09-27 14:54:00,
2013-09-27 11:09:00,59.5,51.0,30.23,West,276,1.0,2.0,73,0.00,,,0.00,weatherlink.com 1.10,2013-09-27 15:09:00,
2013-09-27 11:24:00,59.9,51.0,30.23,WSW,243,1.0,4.0,72,0.00,,,0.00,weatherlink.com 1.10,2013-09-27 15:24:00,
2013-09-27 11:39:00,61.6,51.0,30.23,NW,322,0.0,3.0,69,0.00,,,0.00,weatherlink.com 1.10,2013-09-27 15:39:00,
2013-09-27 11:54:00,60.9,52.0,30.22,NNW,347,3.0,4.0,72,0.00,,,0.00,weatherlink.com 1.10,2013-09-27 15:54:00,
2013-09-27 12:09:00,61.5,52.0,30.22,West,269,1.0,7.0,71,0.00,,,0.00,weatherlink.com 1.10,2013-09-27 16:09:00,
2013-09-27 12:24:00,61.8,52.0,30.22,ESE,102,0.0,5.0,71,0.00,,,0.00,weatherlink.com 1.10,2013-09-27 16:24:00,
2013-09-27 12:39:00,61.8,53.0,30.21,SSE,163,4.0,5.0,72,0.00,,,0.00,weatherlink.com 1.10,2013-09-27 16:39:00,
2013-09-27 12:54:00,61.4,52.0,30.21,WNW,294,1.0,4.0,71,0.00,,,0.00,weatherlink.com 1.10,2013-09-27 16:54:00,
2013-09-27 13:09:00,61.6,52.0,30.21,SSE,155,1.0,4.0,70,0.00,,,0.00,weatherlink.com 1.10,2013-09-27 17:09:00,
2013-09-27 13:24:00,61.9,51.0,30.21,West,266,3.0,4.0,68,0.00,,,0.00,weatherlink.com 1.10,2013-09-27 17:24:00,
2013-09-27 13:39:00,61.6,53.0,30.20,West,273,1.0,2.0,73,0.00,,,0.00,weatherlink.com 1.10,2013-09-27 17:39:00,
2013-09-27 13:54:00,61.5,53.0,30.20,NE,43,1.0,6.0,74,0.00,,,0.00,weatherlink.com 1.10,2013-09-27 17:54:00,
2013-09-27 14:09:00,62.2,53.0,30.20,East,96,1.0,3.0,71,0.00,,,0.00,weatherlink.com 1.10,2013-09-27 18:09:00,
2013-09-27 14:24:00,62.6,53.0,30.19,SSE,148,0.0,4.0,72,0.00,,,0.00,weatherlink.com 1.10,2013-09-27 18:24:00,
2013-09-27 14:39:00,63.3,53.0,30.19,NNW,343,1.0,3.0,70,0.00,,,0.00,weatherlink.com 1.10,2013-09-27 18:39:00,
2013-09-27 14:54:00,63.3,53.0,30.20,SSE,147,1.0,3.0,69,0.00,,,0.00,weatherlink.com 1.10,2013-09-27 18:54:00,
2013-09-27 15:09:00,62.8,52.0,30.20,ESE,111,1.0,4.0,69,0.00,,,0.00,weatherlink.com 1.10,2013-09-27 19:09:00,
2013-09-27 15:24:00,63.1,54.0,30.20,ESE,120,0.0,2.0,71,0.00,,,0.00,weatherlink.com 1.10,2013-09-27 19:24:00,
2013-09-27 15:39:00,62.2,53.0,30.19,NW,306,0.0,3.0,72,0.00,,,0.00,weatherlink.com 1.10,2013-09-27 19:39:00,
2013-09-27 15:54:00,63.2,54.0,30.19,ESE,108,1.0,4.0,72,0.00,,,0.00,weatherlink.com 1.10,2013-09-27 19:54:00,
2013-09-27 16:09:00,62.0,54.0,30.19,SSW,203,0.0,2.0,74,0.00,,,0.00,weatherlink.com 1.10,2013-09-27 20:09:00,
2013-09-27 16:24:00,63.1,54.0,30.20,NW,323,0.0,4.0,71,0.00,,,0.00,weatherlink.com 1.10,2013-09-27 20:24:00,
2013-09-27 16:40:00,64.5,53.0,30.19,East,97,1.0,4.0,67,0.00,,,0.00,weatherlink.com 1.10,2013-09-27 20:40:00,
2013-09-27 16:55:00,64.7,54.0,30.19,North,358,0.0,3.0,69,0.00,,,0.00,weatherlink.com 1.10,2013-09-27 20:55:00,
2013-09-27 17:10:00,65.2,55.0,30.19,ESE,118,0.0,1.0,69,0.00,,,0.00,weatherlink.com 1.10,2013-09-27 21:10:00,
2013-09-27 17:25:00,64.7,55.0,30.20,SSE,158,0.0,2.0,70,0.00,,,0.00,weatherlink.com 1.10,2013-09-27 21:25:00,
2013-09-27 17:40:00,62.0,55.0,30.20,SSE,147,0.0,1.0,77,0.00,,,0.00,weatherlink.com 1.10,2013-09-27 21:40:00,
2013-09-27 17:55:00,58.7,54.0,30.20,SSE,147,0.0,1.0,83,0.00,,,0.00,weatherlink.com 1.10,2013-09-27 21:55:00,
2013-09-27 18:10:00,56.9,53.0,30.20,SE,146,0.0,0.0,87,0.00,,,0.00,weatherlink.com 1.10,2013-09-27 22:10:00,
2013-09-27 18:25:00,55.3,53.0,30.21,SE,146,0.0,0.0,90,0.00,,,0.00,weatherlink.com 1.10,2013-09-27 22:25:00,
2013-09-27 18:40:00,53.9,52.0,30.21,SE,146,0.0,0.0,93,0.00,,,0.00,weatherlink.com 1.10,2013-09-27 22:40:00,
2013-09-27 18:55:00,52.7,51.0,30.21,SE,146,0.0,0.0,94,0.00,,,0.00,weatherlink.com 1.10,2013-09-27 22:55:00,
2013-09-27 19:10:00,51.3,50.0,30.22,SE,146,0.0,0.0,94,0.00,,,0.00,weatherlink.com 1.10,2013-09-27 23:10:00,
2013-09-27 19:25:00,49.6,48.0,30.22,SE,146,0.0,0.0,94,0.00,,,0.00,weatherlink.com 1.10,2013-09-27 23:25:00,
2013-09-27 19:40:00,49.1,48.0,30.22,SE,146,0.0,0.0,96,0.00,,,0.00,weatherlink.com 1.10,2013-09-27 23:40:00,
2013-09-27 19:55:00,48.7,48.0,30.22,SE,146,0.0,0.0,96,0.00,,,0.00,weatherlink.com 1.10,2013-09-27 23:55:00,
2013-09-27 20:10:00,48.6,48.0,30.23,SE,146,0.0,0.0,96,0.00,,,0.00,weatherlink.com 1.10,2013-09-28 00:10:00,
2013-09-27 20:25:00,47.9,47.0,30.23,SSE,147,0.0,0.0,97,0.00,,,0.00,weatherlink.com 1.10,2013-09-28 00:25:00,
2013-09-27 20:40:00,48.5,48.0,30.23,SE,146,0.0,0.0,97,0.00,,,0.00,weatherlink.com 1.10,2013-09-28 00:40:00,
2013-09-27 20:55:00,48.3,48.0,30.23,SE,146,0.0,0.0,97,0.00,,,0.00,weatherlink.com 1.10,2013-09-28 00:55:00,
2013-09-27 21:10:00,47.8,47.0,30.24,SE,146,0.0,0.0,97,0.00,,,0.00,weatherlink.com 1.10,2013-09-28 01:10:00,
2013-09-27 21:25:00,47.0,46.0,30.24,SE,146,0.0,0.0,97,0.00,,,0.00,weatherlink.com 1.10,2013-09-28 01:25:00,
2013-09-27 21:40:00,46.2,45.0,30.25,SE,146,0.0,0.0,97,0.00,,,0.00,weatherlink.com 1.10,2013-09-28 01:40:00,
2013-09-27 21:55:00,46.0,45.0,30.25,SE,146,0.0,0.0,97,0.00,,,0.00,weatherlink.com 1.10,2013-09-28 01:55:00,
2013-09-27 22:10:00,45.4,45.0,30.25,SE,146,0.0,0.0,97,0.00,,,0.00,weatherlink.com 1.10,2013-09-28 02:10:00,
2013-09-27 22:25:00,44.7,44.0,30.25,SE,146,0.0,0.0,97,0.00,,,0.00,weatherlink.com 1.10,2013-09-28 02:25:00,
2013-09-27 22:40:00,44.8,44.0,30.25,SE,146,0.0,0.0,97,0.00,,,0.00,weatherlink.com 1.10,2013-09-28 02:40:00,
2013-09-27 22:55:00,44.2,43.0,30.25,SE,146,0.0,0.0,97,0.00,,,0.00,weatherlink.com 1.10,2013-09-28 02:55:00,
2013-09-27 23:10:00,43.8,43.0,30.25,SE,146,0.0,0.0,97,0.00,,,0.00,weatherlink.com 1.10,2013-09-28 03:10:00,
2013-09-27 23:25:00,43.6,43.0,30.25,SE,146,0.0,0.0,98,0.00,,,0.00,weatherlink.com 1.10,2013-09-28 03:25:00,
2013-09-27 23:40:00,43.6,43.0,30.26,SE,146,0.0,0.0,98,0.00,,,0.00,weatherlink.com 1.10,2013-09-28 03:40:00,
2013-09-27 23:55:00,43.3,43.0,30.26,SSE,147,0.0,0.0,98,0.00,,,0.00,weatherlink.com 1.10,2013-09-28 03:55:00,